Temperature
19 16 16 17 17 18 17 17 17 17 18 17 17 16 16 16 16 16 16 16 17 17 17 17 17 17 17 17 17 17 17 17 17 16 16 16 16 16 16 16 15 16 16 15
16 17 17 18 18 17 17 17 17 17 18 17 16 16 16 16 16 16 16 16 16 17 17 17 17 17 17 17 17 17 17 16 16 16 16 16 16 16 16 15 15 15 15 15
17 17 18 18 17 17 17 17 17 17 17 17 17 16 16 16 16 16 16 16 16 17 17 17 17 17 17 17 17 16 16 16 16 16 16 16 16 15 15 15 15 15 15 15
17 17 18 17 17 17 17 17 17 17 16 15 16 15 15 15 15 14 15 15 15 16 16 17 17 17 17 17 16 16 16 16 16 16 16 16 15 15 15 15 15 15 15 15
17 17 17 17 17 17 17 17 16 16 15 15 15 15 14 14 15 14 14 15 15 16 16 16 17 17 17 16 16 16 16 16 16 15 15 15 15 15 15 15 15 15 15 15
17 17 17 17 17 17 16 16 15 14 14 14 15 14 14 13 14 14 14 15 15 16 16 16 16 16 16 16 16 16 15 15 15 15 15 15 15 15 15 15 15 14 14 14
16 17 17 18 17 17 16 15 14 14 13 14 14 14 14 14 14 14 14 15 15 15 15 16 16 16 16 16 15 15 15 15 15 15 15 14 14 14 14 14 14 14 14 14
15 15 17 17 17 16 15 15 14 15 14 13 14 14 14 14 14 15 15 15 15 15 15 15 15 15 15 15 15 15 15 15 14 14 14 14 14 14 14 14 14 14 14 13
15 15 16 17 17 16 15 14 14 13 14 13 13 13 14 14 14 14 14 14 14 15 15 15 15 15 15 15 15 15 14 14 14 14 14 14 14 14 14 14 14 13 13 13
14 15 16 16 16 16 15 13 12 13 13 13 14 13 13 14 13 13 13 13 14 14 14 14 14 14 14 14 14 14 14 14 14 14 13 13 13 13 13 13 13 13 13 13
14 14 15 15 16 15 14 14 12 11 12 13 13 13 14 13 13 13 12 13 14 14 14 14 14 14 14 14 14 14 14 14 13 13 13 13 13 13 13 13 13 12 12 12
13 12 13 14 15 15 15 14 12 13 12 11 12 13 14 12 12 12 12 13 13 13 13 13 13 13 13 13 13 13 13 13 13 13 13 13 12 12 12 12 12 12 12 12
13 12 13 14 14 14 14 13 13 11 11 10 12 13 13 12 12 12 12 12 13 13 13 13 13 13 13 13 13 13 13 13 13 13 12 12 12 12 12 12 11 11 11 11
13 11 12 13 13 13 13 13 12 12 11 11 11 12 12 12 11 11 12 12 12 12 12 12 12 12 12 12 12 12 12 12 12 12 12 12 12 11 11 11 11 11 11 10
12 12 12 12 13 13 13 13 12 12 12 12 12 12 12 12 11 11 11 12 11 11 11 11 11 11 12 12 12 12 12 12 12 11 11 11 11 11 11 10 10 10 10 10
11 12 12 12 12 12 12 12 12 12 12 12 12 11 11 11 11 11 11 11 11 11 11 11 11 11 11 11 11 11 11 11 11 11 11 11 10 10 10 10 10 9 9 9
10 11 11 11 11 12 12 12 12 12 11 11 11 11 11 10 10 11 11 11 11 11 11 11 11 11 11 11 11 11 11 11 10 10 10 10 10 10 9 9 9 9 9 9
10 10 9 10 11 12 12 11 12 12 11 11 10 10 10 11 11 11 11 11 11 10 10 10 10 10 10 10 10 10 10 10 10 10 10 9 9 9 9 9 9 9 8 8
9 10 9 9 10 10 11 11 11 11 11 10 10 10 10 10 10 10 11 11 11 10 10 10 9 9 9 10 10 10 10 10 9 9 9 9 9 9 8 8 8 8 8 8
8 9 9 9 10 11 11 12 12 11 11 11 10 9 9 9 8 9 11 10 10 10 9 9 9 9 9 9 9 9 9 9 9 9 8 8 8 8 8 8 8 8 7 7
9 8 8 9 9 10 10 11 11 11 11 11 11 10 10 9 10 10 10 10 10 9 9 9 8 8 8 8 8 8 8 8 8 8 8 8 8 7 7 7 7 7 7 7
9 8 8 8 9 10 10 10 10 10 11 11 11 11 10 10 10 10 10 9 9 9 8 8 8 8 8 7 8 8 8 8 8 7 7 7 7 7 7 7 6 6 6 6
8 8 8 8 9 10 10 11 11 11 11 11 11 11 10 10 10 9 9 9 8 8 8 8 8 7 7 7 7 7 7 7 7 7 7 7 6 6 6 6 6 6 5 5
7 7 7 7 8 9 10 11 11 11 11 11 11 11 10 10 9 9 8 8 8 8 7 7 7 7 7 7 7 7 7 6 6 6 6 6 6 6 5 5 5 5 5 5
7 7 7 7 7 9 10 11 11 11 11 10 10 10 10 9 9 8 8 8 8 7 7 7 7 6 6 6 6 6 6 6 6 6 5 5 5 5 5 5 5 4 4 4
6 7 7 8 9 8 10 10 10 10 10 10 9 9 9 9 8 8 8 7 7 7 7 6 6 6 6 6 6 6 5 5 5 5 5 5 5 4 4 4 4 4 3 3
Wind_Speed
5 6 2 3 4 4 4 3 2 3 2 2 3 4 4 2 2 3 3 3 3 4 3 1 1 1 2 2 2 2 2 1 2 2 1 1 1 1 1 2 3 2 2 2
6 2 3 2 2 3 3 2 1 3 1 2 2 4 4 2 4 5 5 5 5 3 1 0 0 1 2 2 2 1 1 2 2 1 1 1 1 0 0 2 3 3 2 2
4 2 1 3 3 2 1 4 3 2 2 2 1 4 3 2 1 1 2 3 3 5 4 3 2 2 1 2 2 2 2 1 2 2 2 2 3 2 2 2 3 3 2 1
1 2 2 2 1 3 3 3 3 2 1 2 0 3 5 3 3 2 3 2 3 3 3 3 3 2 3 3 2 1 1 1 1 3 3 3 2 1 2 1 1 2 3 2
1 0 2 1 2 3 3 1 2 1 2 1 1 2 6 2 3 4 4 4 4 3 3 3 4 4 4 3 2 1 1 2 2 2 3 3 1 1 1 1 1 2 2 3
1 1 2 2 0 2 3 4 4 4 4 1 3 4 5 3 5 4 3 3 3 3 2 2 2 2 1 1 1 2 2 1 2 2 2 2 1 1 0 1 1 2 2 2
4 3 2 1 2 3 4 5 3 4 2 5 2 3 6 5 4 4 4 3 3 2 2 2 1 1 1 2 2 2 2 1 1 2 1 1 2 2 2 1 1 1 1 1
0 4 2 0 3 3 2 6 5 4 4 4 2 4 5 3 3 2 1 1 0 1 1 2 2 2 2 2 2 2 2 1 1 1 1 0 1 1 1 1 1 1 1 2
3 4 4 1 1 5 3 2 4 4 2 2 4 5 5 2 4 4 3 2 1 0 1 1 1 1 1 1 2 3 3 2 1 1 1 0 0 0 1 1 0 1 1 1
4 2 4 3 4 3 4 6 4 4 2 3 5 4 3 4 3 2 2 2 1 1 1 1 1 1 0 0 1 2 2 2 2 1 1 0 0 0 0 0 0 1 1 1
3 2 3 2 1 2 2 3 4 3 4 4 3 5 3 3 3 3 3 2 1 0 0 0 0 1 1 1 1 1 1 1 1 1 1 0 0 0 1 1 0 0 0 1
3 3 2 4 3 1 3 4 5 4 3 3 3 6 2 2 2 1 2 2 1 1 1 1 1 1 1 1 1 1 0 0 1 1 1 1 0 1 1 0 0 0 1 0
3 4 2 5 4 3 1 2 2 4 4 4 4 6 2 3 2 1 1 2 1 1 2 2 2 1 1 0 0 0 1 1 0 1 1 1 1 1 1 0 0 1 1 1
4 3 5 6 6 3 2 2 2 4 3 4 7 7 5 3 2 2 2 1 1 1 1 2 2 2 2 1 0 0 1 0 0 1 1 1 0 0 0 0 1 1 1 1
4 3 3 4 4 3 4 5 4 5 6 7 7 6 7 5 3 3 1 0 1 1 1 1 1 1 2 2 1 1 1 1 0 1 1 1 1 0 1 1 1 1 2 2
2 3 1 2 2 3 5 6 5 6 5 5 5 6 4 2 1 1 1 2 1 1 1 1 1 1 2 2 2 1 1 1 0 1 1 0 1 1 1 1 2 2 2 2
1 4 2 3 4 3 5 6 6 4 4 5 7 7 2 1 3 3 3 2 3 3 1 1 2 2 3 3 2 2 2 1 1 1 1 1 1 1 1 2 2 2 2 2
5 4 3 1 1 5 6 2 3 4 4 4 3 3 3 4 2 1 2 2 2 1 1 1 2 2 2 2 1 1 1 1 1 1 1 1 2 2 2 2 2 1 1 1
5 6 3 2 2 6 5 2 3 3 4 3 4 3 2 0 2 2 1 1 2 2 1 1 1 1 2 2 1 1 1 1 1 1 1 1 2 2 2 1 1 1 1 1
4 4 4 3 3 5 5 3 1 2 4 3 3 3 2 2 0 4 2 1 1 1 1 1 1 2 2 3 1 1 0 1 1 1 1 1 1 2 2 1 0 1 1 1
2 2 3 4 5 7 5 3 1 3 5 3 3 4 4 4 4 2 0 1 1 1 1 1 1 1 2 2 1 1 0 2 2 1 1 1 1 1 1 1 1 1 1 1
5 4 4 4 4 7 2 2 4 5 3 2 2 3 3 3 1 1 1 0 1 1 1 1 1 1 2 2 1 1 1 2 1 1 2 1 1 1 1 2 1 1 1 1
5 6 5 7 6 4 2 4 4 2 2 2 2 2 2 2 1 1 0 1 0 0 0 0 1 1 2 2 1 0 2 2 1 2 2 1 2 1 2 2 2 2 1 1
3 2 3 3 5 4 4 4 3 2 2 2 2 2 3 3 2 2 1 1 1 1 0 0 1 1 1 2 1 1 1 1 2 2 1 1 2 2 2 1 1 1 1 0
5 3 2 4 5 4 4 3 3 2 1 1 0 1 3 3 2 2 2 2 1 1 0 0 1 1 1 1 2 2 1 2 2 2 1 1 1 1 1 1 1 1 0 0
5 6 6 6 6 5 6 4 2 1 1 1 1 0 1 2 3 2 2 2 1 1 0 1 0 0 0 1 1 2 1 1 2 2 1 1 1 1 1 1 2 4 3 3
Wind_Direction
38 73 122 211 190 177 169 165 208 256 250 151 214 260 277 225 194 202 204 206 210 228 250 232 184 157 125 99 104 122 114 115 108 88 92 84 33 359 9 17 17 38 54 83
47 30 239 190 132 127 141 144 270 309 359 174 226 271 276 233 219 215 208 212 212 228 264 230 192 121 154 158 149 136 140 143 140 151 162 151 146 308 329 6 9 14 26 65
137 253 171 121 103 116 166 179 201 236 356 34 12 313 298 299 265 232 223 218 214 208 211 207 202 195 175 183 191 184 176 155 151 126 91 65 53 32 17 1 346 349 1 30
133 284 100 104 149 152 240 223 188 181 105 289 312 274 285 284 314 278 246 230 228 231 216 205 192 194 203 216 207 179 154 125 128 124 117 116 128 192 249 261 287 335 15 20
234 208 105 144 234 176 211 104 113 125 142 343 327 232 286 319 288 282 259 245 239 225 211 205 200 202 204 199 177 153 112 97 98 123 139 136 164 237 273 317 352 358 7 19
262 276 174 203 253 141 134 70 57 53 72 285 247 202 284 266 253 269 262 257 251 229 203 209 205 184 187 146 127 111 109 95 94 116 127 143 178 249 357 348 344 341 345 353
346 337 328 109 57 24 79 86 30 1 2 256 255 204 253 265 255 235 243 255 255 220 180 185 167 165 161 147 146 135 131 119 109 119 131 169 189 189 206 237 256 317 329 322
122 299 300 46 160 178 153 137 159 208 235 280 294 234 253 277 292 283 245 229 176 123 169 194 189 177 158 155 156 144 145 137 125 134 179 215 184 179 216 223 221 233 259 275
170 259 308 305 158 136 128 158 168 146 194 269 278 286 305 350 11 16 25 47 69 229 212 188 156 142 145 162 166 165 162 152 169 180 177 145 308 236 247 265 243 251 273 300
147 235 298 311 60 43 138 142 102 126 167 261 288 275 267 293 298 322 335 335 304 9 34 54 68 82 77 153 165 144 150 168 173 154 164 149 238 245 252 104 34 338 345 31
115 158 312 5 164 202 102 108 119 128 160 172 263 274 235 234 252 256 271 295 296 48 155 97 45 26 57 44 64 120 138 124 116 147 159 127 317 39 79 103 196 346 31 54
119 120 264 270 274 223 169 168 148 158 223 183 204 267 304 261 244 243 285 309 333 5 32 49 53 52 57 53 50 70 134 206 215 175 135 99 18 46 90 86 312 83 111 104
132 110 32 341 343 6 75 142 148 133 134 170 194 263 322 4 12 22 324 314 330 6 35 33 30 34 37 22 11 212 221 246 286 123 115 94 55 18 337 337 16 76 95 84
118 129 175 209 236 234 262 253 180 143 173 211 224 251 297 317 315 323 322 323 349 28 54 44 19 355 346 338 329 313 297 273 107 112 118 133 208 223 223 80 93 101 97 96
105 164 212 246 261 241 248 253 224 212 206 208 237 241 258 258 244 254 270 312 47 21 21 18 342 329 332 335 329 324 313 311 170 138 147 246 273 28 85 82 70 69 69 68
84 153 179 283 273 259 267 265 243 234 229 228 248 260 257 258 185 252 236 186 207 258 293 314 314 308 294 284 289 310 294 284 147 156 195 194 108 75 74 85 80 70 62 55
141 145 149 255 288 324 271 244 222 222 221 203 227 247 261 247 245 230 223 217 223 230 250 289 294 283 277 266 250 234 238 205 133 120 91 119 128 112 97 93 87 84 77 68
155 143 148 213 1 242 246 256 208 216 244 222 232 255 242 235 260 228 170 200 239 257 273 287 315 317 305 292 279 241 156 147 137 106 87 95 106 107 98 94 96 86 76 84
161 147 141 150 232 277 288 256 181 197 264 236 227 257 274 11 21 340 324 216 217 215 234 268 277 312 329 323 312 89 90 125 114 107 125 131 126 121 116 112 110 89 96 76
81 114 136 153 200 245 255 277 245 141 270 268 220 227 206 103 318 271 301 3 33 58 51 7 4 22 5 336 6 86 62 153 209 222 200 150 132 133 138 137 68 63 108 163
91 91 159 187 223 259 262 281 113 179 256 271 219 213 190 197 215 219 52 33 66 69 25 35 57 22 335 340 45 80 345 256 249 214 125 113 117 132 120 84 51 79 86 105
179 173 188 171 210 253 250 137 183 230 270 245 228 210 194 200 180 118 87 68 77 49 23 45 77 0 347 4 55 48 301 291 332 97 104 92 81 95 88 86 55 57 84 94
199 194 191 194 216 252 239 227 259 246 250 265 231 231 172 175 197 165 151 177 219 205 3 45 121 18 2 8 60 119 300 350 64 89 94 83 72 72 84 96 81 57 62 80
259 185 172 240 265 269 278 282 292 270 259 274 235 202 171 188 195 189 186 199 217 262 294 96 97 59 350 348 6 320 336 63 86 87 75 89 92 73 70 78 90 83 71 61
223 188 203 252 272 301 292 278 283 305 314 342 333 184 180 173 197 202 207 216 225 253 299 144 162 183 295 347 358 352 42 101 94 85 72 82 103 115 91 63 62 75 75 115
205 195 198 232 232 220 258 269 254 226 244 212 179 290 227 177 193 195 207 213 210 217 197 157 193 213 312 3 3 353 16 110 111 91 73 88 100 103 100 77 28 22 22 17
Height
1510 1516 1523 1522 1521 1522 1525 1529 1531 1528 1524 1526 1528 1529 1526 1525 1526 1526 1526 1526 1527 1528 1529 1530 1530 1531 1532 1533 1533 1534 1534 1535 1535 1536 1536 1536 1536 1536 1536 1536 1536 1536 1536 1536
1517 1522 1519 1517 1519 1521 1525 1529 1531 1528 1524 1526 1528 1528 1524 1524 1524 1524 1524 1525 1525 1526 1527 1528 1529 1530 1530 1531 1532 1533 1533 1534 1534 1535 1535 1536 1536 1536 1536 1536 1536 1536 1536 1535
1520 1520 1516 1518 1521 1524 1526 1529 1529 1530 1527 1527 1529 1531 1526 1523 1522 1522 1523 1523 1524 1524 1525 1526 1527 1528 1529 1530 1531 1531 1532 1533 1533 1534 1534 1535 1535 1535 1535 1535 1535 1535 1535 1534
1519 1517 1517 1519 1522 1523 1528 1523 1524 1527 1533 1538 1534 1543 1530 1524 1523 1521 1521 1522 1522 1522 1523 1524 1525 1526 1527 1528 1529 1530 1531 1532 1532 1533 1533 1533 1533 1533 1534 1534 1534 1534 1534 1534
1520 1517 1518 1521 1520 1520 1523 1521 1524 1527 1533 1539 1537 1541 1535 1526 1524 1521 1520 1519 1520 1520 1521 1522 1523 1525 1526 1527 1528 1529 1530 1530 1531 1531 1532 1532 1532 1532 1533 1533 1533 1533 1532 1532
1518 1516 1516 1518 1517 1519 1520 1524 1528 1534 1539 1547 1539 1542 1538 1530 1523 1519 1518 1518 1518 1518 1520 1521 1522 1523 1524 1525 1526 1527 1528 1529 1529 1530 1530 1531 1531 1531 1531 1531 1531 1531 1531 1531
1522 1519 1516 1516 1520 1521 1523 1534 1546 1548 1553 1549 1537 1539 1536 1522 1518 1517 1516 1516 1516 1517 1518 1519 1520 1520 1522 1523 1524 1525 1526 1526 1528 1528 1529 1529 1529 1530 1529 1529 1529 1529 1529 1529
1530 1531 1519 1517 1519 1524 1526 1531 1547 1553 1554 1548 1538 1539 1529 1519 1516 1515 1515 1515 1516 1516 1517 1518 1518 1519 1520 1521 1522 1523 1524 1525 1526 1527 1527 1528 1528 1528 1528 1528 1527 1527 1527 1527
1531 1530 1518 1516 1516 1519 1527 1532 1532 1543 1545 1548 1543 1534 1525 1517 1516 1515 1515 1515 1515 1515 1516 1517 1517 1518 1518 1519 1520 1521 1522 1523 1524 1525 1526 1526 1526 1526 1526 1526 1526 1525 1525 1525
1525 1530 1522 1518 1517 1519 1522 1528 1538 1543 1550 1552 1543 1537 1532 1522 1519 1517 1516 1515 1515 1515 1515 1516 1516 1517 1517 1518 1519 1520 1521 1521 1522 1523 1524 1524 1524 1524 1524 1524 1523 1523 1523 1522
1522 1530 1527 1522 1522 1524 1526 1530 1534 1542 1543 1550 1549 1539 1522 1520 1518 1517 1516 1515 1515 1514 1515 1515 1515 1516 1517 1517 1518 1518 1519 1520 1520 1521 1522 1522 1522 1522 1522 1521 1521 1521 1521 1520
1523 1531 1535 1527 1521 1519 1521 1525 1532 1540 1543 1546 1547 1540 1518 1517 1516 1516 1516 1515 1515 1515 1514 1514 1514 1515 1515 1516 1516 1517 1517 1518 1519 1519 1520 1520 1520 1520 1519 1519 1519 1519 1518 1518
1523 1531 1538 1533 1530 1525 1524 1525 1527 1533 1540 1546 1545 1535 1518 1516 1515 1515 1515 1515 1514 1514 1514 1514 1514 1514 1514 1514 1515 1515 1516 1516 1517 1517 1517 1517 1517 1517 1517 1517 1517 1517 1516 1516
1519 1529 1535 1537 1531 1526 1526 1524 1526 1530 1538 1540 1536 1528 1520 1517 1516 1515 1515 1515 1515 1514 1513 1513 1513 1513 1513 1513 1513 1513 1514 1514 1515 1515 1515 1515 1515 1515 1515 1515 1515 1514 1514 1514
1519 1528 1527 1527 1524 1524 1523 1523 1524 1526 1527 1530 1526 1524 1519 1516 1515 1514 1514 1514 1514 1514 1512 1512 1512 1512 1512 1512 1512 1512 1512 1512 1512 1513 1513 1513 1513 1513 1513 1513 1512 1512 1512 1512
1520 1526 1526 1526 1523 1523 1523 1521 1521 1521 1521 1522 1521 1520 1514 1514 1514 1513 1513 1513 1513 1512 1512 1511 1511 1511 1511 1510 1510 1510 1510 1510 1510 1510 1510 1511 1510 1510 1510 1510 1510 1510 1510 1510
1523 1525 1530 1531 1525 1522 1525 1518 1518 1517 1516 1517 1518 1515 1512 1512 1512 1511 1511 1511 1511 1510 1510 1510 1510 1509 1509 1509 1508 1508 1508 1508 1508 1508 1508 1508 1508 1508 1508 1508 1508 1508 1508 1508
1521 1525 1531 1532 1528 1530 1520 1513 1512 1513 1513 1512 1511 1510 1510 1510 1509 1509 1510 1510 1509 1509 1509 1509 1508 1508 1507 1507 1506 1506 1506 1506 1506 1506 1506 1505 1505 1506 1506 1506 1506 1505 1505 1505
1515 1522 1530 1534 1532 1526 1517 1511 1511 1513 1512 1509 1509 1508 1509 1508 1509 1508 1508 1508 1508 1507 1507 1507 1507 1507 1506 1505 1504 1504 1504 1504 1504 1503 1503 1503 1503 1503 1503 1503 1503 1503 1503 1502
1517 1519 1527 1532 1530 1528 1516 1509 1508 1511 1513 1507 1506 1507 1507 1507 1511 1509 1507 1506 1506 1506 1505 1505 1505 1505 1504 1503 1503 1502 1501 1501 1501 1501 1501 1501 1501 1501 1501 1501 1500 1500 1500 1500
1521 1524 1527 1529 1528 1521 1511 1508 1508 1516 1512 1505 1504 1504 1505 1505 1506 1506 1505 1505 1504 1504 1504 1504 1503 1503 1502 1501 1501 1500 1499 1499 1499 1499 1499 1499 1499 1499 1499 1498 1498 1498 1497 1497
1519 1523 1526 1528 1527 1521 1507 1507 1509 1508 1503 1503 1503 1503 1503 1503 1504 1504 1504 1503 1503 1502 1502 1502 1501 1501 1501 1500 1499 1498 1497 1497 1497 1496 1496 1497 1497 1497 1497 1496 1496 1495 1495 1494
1515 1515 1515 1516 1515 1507 1505 1505 1504 1503 1502 1502 1501 1502 1502 1502 1502 1502 1502 1502 1502 1501 1501 1500 1500 1499 1499 1498 1497 1496 1496 1496 1495 1495 1495 1495 1495 1495 1495 1494 1494 1493 1492 1492
1511 1509 1511 1511 1506 1504 1503 1502 1502 1501 1501 1501 1500 1501 1501 1501 1501 1501 1501 1501 1500 1500 1499 1498 1498 1497 1497 1497 1496 1496 1495 1494 1494 1493 1493 1493 1493 1493 1493 1492 1492 1491 1491 1490
1507 1508 1509 1508 1504 1502 1500 1500 1500 1500 1500 1500 1499 1500 1499 1499 1499 1500 1499 1499 1499 1498 1497 1497 1496 1495 1495 1495 1495 1495 1494 1493 1492 1492 1492 1491 1491 1491 1490 1490 1490 1490 1489 1489
1503 1504 1505 1503 1500 1500 1499 1498 1498 1498 1498 1498 1498 1498 1498 1498 1498 1498 1498 1497 1497 1496 1495 1495 1495 1495 1494 1494 1494 1493 1492 1492 1491 1490 1490 1490 1489 1489 1488 1488 1488 1488 1488 1487